Mackall AAF, NC

5:37 AM EST on December 14, 2017 (GMT -0500)
Mackall Army Air Field

Weather History for KHFF - March, 2014

Change the Weather History Date:

Friday, March 21, 2014

  Actual Average Record
Temperature  
Mean Temperature 49 °F -  
Max Temperature 68 °F 62 °F 85 °F (2017)
Min Temperature 30 °F 42 °F 30 °F (2014)
Degree Days  
Heating Degree Days 16    
Moisture  
Dew Point 32 °F    
Average Humidity 55    
Maximum Humidity 98    
Minimum Humidity 21    
Precipitation  
Precipitation 0.00 in - - ()
Sea Level Pressure  
Sea Level Pressure 30.13 in    
Wind  
Wind Speed 4 mph (SSW)    
Max Wind Speed 12 mph    
Max Gust Speed 17 mph    
Visibility 12 miles    
Events      
Averages and records for this station are not official NWS values.
T = Trace of Precipitation, MM = Missing Value Source: NWS Daily Summary

Daily Weather History Graph

Daily Weather History Graph

Search for Another Location

Airport or City:

Trip Planner

Search our weather history database for the weather conditions in past years. The results will help you decide how hot, cold, wet, or windy it might be!

Date:

Astronomy

Mar. 21, 2014 Rise Set
Actual Time 7:20 AM EDT 7:30 PM EDT
Civil Twilight 6:55 AM EDT 7:55 PM EDT
Nautical Twilight 6:25 AM EDT 8:25 PM EDT
Astronomical Twilight 5:55 AM EDT 8:55 PM EDT
Moon No Moon Rise 10:20 AM EDT (3/21)
Length of Visible Light 13h 00m
Length of Day
12h 10m
Waning Gibbous, 75% of the Moon is Illuminated
Mar 21
Waning Gibbous
Mar 23
Last Quarter
Mar 30
New
Apr 7
First Quarter
Apr 15
Full

Hourly Weather History & Observations

Time (EDT) Temp. Windchill Dew Point Humidity Pressure Visibility Wind Dir Wind Speed Gust Speed Precip Events Conditions
12:56 AM 38.8 °F 36.5 °F 37.4 °F 95% 30.07 in 12.0 mi NNW 3.5 mph - N/A   Clear
1:56 AM 37.8 °F 35.3 °F 36.1 °F 94% 30.10 in 12.0 mi North 3.5 mph - N/A   Clear
2:56 AM 35.8 °F - 34.5 °F 95% 30.11 in 12.0 mi Variable 1.2 mph - N/A   Clear
3:56 AM 35.1 °F - 33.1 °F 92% 30.11 in 12.0 mi SSE 1.2 mph - N/A   Clear
4:56 AM 33.3 °F - 30.9 °F 91% 30.11 in 12.0 mi NNW 2.3 mph - N/A   Clear
5:56 AM 31.8 °F - 30.9 °F 96% 30.13 in 12.0 mi NNW 1.2 mph - N/A   Clear
6:56 AM 30.9 °F - 30.4 °F 98% 30.16 in 12.0 mi NW 1.2 mph - N/A   Clear
7:56 AM 31.1 °F - 30.6 °F 98% 30.19 in 12.0 mi NNW 2.3 mph - N/A   Clear
8:56 AM 38.3 °F - 34.9 °F 87% 30.18 in 12.0 mi NNE 1.2 mph - N/A   Clear
9:56 AM 48.9 °F - 31.6 °F 51% 30.19 in 12.0 mi Variable 2.3 mph - N/A   Clear
10:56 AM 57.6 °F - 27.9 °F 32% 30.19 in 12.0 mi Variable 1.2 mph - N/A   Clear
11:56 AM 60.4 °F - 28.2 °F 29% 30.20 in 12.0 mi Variable 3.5 mph - N/A   Clear
12:56 PM 62.8 °F - 27.0 °F 26% 30.17 in 12.0 mi Variable 6.9 mph - N/A   Clear
1:56 PM 65.1 °F - 26.4 °F 23% 30.14 in 9.0 mi SE 8.1 mph - N/A   Clear
2:56 PM 66.4 °F - 26.2 °F 22% 30.12 in 12.0 mi Variable 4.6 mph - N/A   Clear
3:56 PM 67.6 °F - 26.4 °F 21% 30.11 in 12.0 mi SSW 9.2 mph - N/A   Clear
4:17 PM 68.0 °F - 26.6 °F 21% 30.09 in 12.0 mi SW 11.5 mph 17.3 mph N/A   Clear
4:56 PM 68.2 °F - 27.9 °F 22% 30.09 in 12.0 mi South 11.5 mph - N/A   Clear
5:13 PM 68.0 °F - 26.6 °F 21% 30.08 in 12.0 mi SSW 11.5 mph - N/A   Clear
5:56 PM 66.6 °F - 28.9 °F 24% 30.09 in 12.0 mi South 8.1 mph - N/A   Clear
6:56 PM 63.3 °F - 33.6 °F 33% 30.09 in 12.0 mi South 4.6 mph - N/A   Clear
7:56 PM 57.0 °F - 43.3 °F 60% 30.09 in 12.0 mi South 3.5 mph - N/A   Mostly Cloudy
8:56 PM 54.5 °F - 37.8 °F 53% 30.09 in 12.0 mi Variable 1.2 mph - N/A   Partly Cloudy
9:56 PM 52.7 °F - 36.7 °F 55% 30.11 in 12.0 mi South 9.2 mph - N/A   Clear
10:56 PM 54.0 °F - 37.2 °F 53% 30.12 in 12.0 mi South 6.9 mph - N/A   Scattered Clouds
11:56 PM 54.0 °F - 33.4 °F 46% 30.12 in 12.0 mi South 10.4 mph - N/A   Partly Cloudy